Regional Weather Roundup
Issued by NWS

Home | Current Version | Previous Version | Text Only | Print | Product List | Glossary Off
Versions: 1 2 3 4 5 6 7 8 9 10 11 12 13 14 15 16 17 18 19 20 21 22 23 24 25 26 27 28 29 30 31 32 33 34 35 36 37 38 39 40 41 42 43 44 45 46 47 48 49 50

000
ASUS43 KMPX 191001
RWRMN
WEATHER ROUNDUP FOR MINNESOTA
NATIONAL WEATHER SERVICE TWIN CITIES/CHANHASSEN MN
400 AM CST SUN NOV 19 2017


NOTE: "FAIR" INDICATES FEW OR NO CLOUDS BELOW 12,000 FEET WITH NO
SIGNIFICANT WEATHER AND/OR OBSTRUCTIONS TO VISIBILITY. N/A MEANS
CURRENT SKY AND/OR WEATHER CONDITIONS ARE NOT AVAILABLE.

MNZ060>063-068>070-191100-
   Twin Cities Metro

CITY           SKY/WX    TMP DP  RH WIND       PRES   REMARKS
TWIN CITIES    CLEAR     19  11  70 W8        30.08F WCI   9
ST PAUL        CLEAR     19   9  65 W10       30.09F WCI   7
CRYSTAL        CLEAR     19   7  59 W8        30.06F WCI   9
BLAINE         CLEAR     18  10  73 W7        30.05F WCI   8
LAKEVILLE      CLEAR     16  10  79 W7        30.07F WCI   6
EDEN PRAIRIE   CLEAR     18  10  71 W7        30.07F WCI   9
SOUTH ST PAUL  CLEAR     20  10  65 W5        30.08F WCI  14
LAKE ELMO      FAIR      19  12  73 W7        30.07S WCI  10
$$
MNZ001>005-007-008-013>017-022>024-027-028-191100-
   Northwest Minnesota

CITY           SKY/WX    TMP DP  RH WIND       PRES   REMARKS
BEMIDJI        CLEAR      9   6  85 W6        29.95F WCI  -1
HALLOCK        CLOUDY     7   3  85 S5        29.97F WCI  -2
ROSEAU         CLOUDY     9   3  78 SW5       29.95F WCI   0
WARROAD        CLEAR      7   3  85 SW7       29.94S WCI  -5
CROOKSTON      CLOUDY    10   7  85 SE3       30.01F
FOSSTON        CLOUDY     9   7  92 SW7       29.98F WCI  -3
DETROIT LAKES  CLEAR     16  12  86 SW3       29.99F
MOORHEAD       CLEAR     10   7  85 CALM      30.03F
PARK RAPIDS    CLEAR      8   3  80 W5        29.97F WCI   0
MAHNOMEN       FAIR       9   6  87 SW6       29.99F WCI  -1
$$
MNZ006-009>011-018-025>026-191100-
   North Central Minnesota

CITY           SKY/WX    TMP DP  RH WIND       PRES   REMARKS
BAUDETTE       CLEAR      4   1  88 CALM      29.92F
FLAG ISLAND    CLEAR      7   1  78 W7        29.91S WCI  -5
INTL FALLS     CLEAR      7   2  80 W7        29.92F WCI  -5
WASKISH        CLEAR     12   7  79 W10       29.95S WCI  -1
BIG FORK       CLEAR      7   3  85 CALM      29.94S
LONGVILLE      CLEAR     10   7  85 W3        29.97F
GRAND RAPIDS   CLEAR     10   6  84 W7        29.97F WCI  -1
CRANE LAKE     FLURRIES   9   5  85 W3        29.94F
ORR            CLEAR      5   1  85 W3        29.90S
COOK           CLEAR      7   3  85 W5        29.93S WCI  -2
WALKER         FAIR      10   5  80 SW7       29.97F WCI  -2
$$
MNZ012-019>021-037-191100-
   Northeast Minnesota

CITY           SKY/WX    TMP DP  RH WIND       PRES   REMARKS
DULUTH         CLEAR     11   7  84 W10       29.92F WCI  -3
ELY            PTCLDY    10   5  79 W9        29.89F WCI  -2
HIBBING        CLEAR      8   5  87 W6        29.94S WCI  -2
EVELETH        CLEAR      9   3  78 W5        29.94F WCI   0
DULUTH HARBOR  CLEAR     18  10  73 W13       30.00S WCI   4
TWO HARBORS    CLEAR     16   9  73 W7        29.92R WCI   6
SILVER BAY     CLEAR     14   9  79 W7        29.90S WCI   4
GRAND MARAIS     N/A     19   9  65 VRB5      29.91S WCI  12
G MARAIS ARPRT LGT SNOW  10   3  72 NW3       29.82R
$$
MNZ029>031-032-039>041-046>048-054>057-064-191100-
   West Central Minnesota

CITY           SKY/WX    TMP DP  RH WIND       PRES   REMARKS
FERGUS FALLS   CLEAR     10   7  85 S5        30.06F WCI   2
WHEATON        CLEAR     12   9  85 S6        30.06F WCI   3
MORRIS         CLEAR     16  10  79 CALM      30.04F
ALEXANDRIA     CLEAR     15  10  80 W8        30.02F WCI   4
ELBOW LAKE     FAIR      10   8  89 W7        30.04F FOG     WCI  -1
WADENA         CLEAR     10   9  92 SW5       29.99F WCI   2
GLENWOOD       CLEAR     10   9  92 SW7       30.04S WCI   0
APPLETON       CLEAR     16  12  86 S3        30.06F
BENSON         CLEAR     10   9  92 SW5       30.07F WCI   2
ORTONVILLE     CLEAR     18  12  79 MISG      30.05F
MADISON        CLEAR     18  16  93 S6        30.07F WCI   9
WILLMAR        FAIR      14  10  85 SW6       30.08F WCI   5
$$
MNZ033>034-036-042>043-049>051-058-059-191100-
   Central Minnesota

CITY           SKY/WX    TMP DP  RH WIND       PRES   REMARKS
ST CLOUD       CLEAR     13   9  84 SW7       30.05F WCI   3
SAUK CENTRE    FAIR      14  10  86 SW7       30.04S WCI   4
PAYNESVILLE    CLEAR     16  13  88 SW7       30.06F WCI   6
AITKIN         CLEAR     10   7  85 CALM      29.98F
PINE RIVER     CLEAR     10   7  85 CALM      30.02F
BRAINERD       CLEAR     14   7  73 W5        30.00F WCI   6
STAPLES        CLEAR     10   9  92 W3        29.99F
LONG PRAIRIE   FAIR      14  10  85 S5        30.02F WCI   6
LITTLE FALLS   CLEAR     14   5  67 CALM      30.03F
LITCHFIELD     CLEAR     18  12  79 SW3       30.07F
BUFFALO        CLEAR     18  11  75 W9        30.08F WCI   6
MAPLE LAKE     CLEAR     17  13  84 W3        30.07F
HUTCHINSON     CLOUDY    17  13  83 W7        30.08F WCI   8
$$
MNZ037-044-045-052-053-191100-
   East Central Minnesota

CITY           SKY/WX    TMP DP  RH WIND       PRES   REMARKS
PRINCETON      CLEAR     16  10  79 CALM      30.04F
MORA           CLEAR     14  10  85 W6        30.05S WCI   5
CAMBRIDGE      CLEAR     18   9  68 CALM      30.04F
RUSH CITY      CLEAR     16  10  79 W7        30.04F WCI   6
MOOSE LAKE     CLEAR     12   9  85 CALM      29.99S
HINCKLEY       FAIR      18  10  73 W3        30.01F
CLOQUET        CLEAR     10   7  85 W8        29.95F WCI  -1
MCGREGOR       CLEAR     12  10  92 CALM      29.99F
$$
MNZ071>073-080-081-089-090-097-098-191100-
   Southwest Minnesota

CITY           SKY/WX    TMP DP  RH WIND       PRES   REMARKS
MONTEVIDEO     CLEAR     16  10  79 CALM      30.07F
GRANITE FALLS  CLEAR     16  12  86 S3        30.10F
CANBY          CLEAR     24  18  78 SW10      30.07F WCI  13
MARSHALL       CLEAR     20  15  81 SW6       30.08F WCI  12
REDWOOD FALLS  CLEAR     18  10  71 W7        30.09F WCI   9
OLIVIA         CLEAR     18  12  79 W5        30.08F WCI  11
PIPESTONE      CLEAR     16  12  86 SW5       30.07F WCI   9
WINDOM           N/A     18   5  57 W5        30.09F WCI  11
WORTHINGTON    CLEAR     18  14  84 SW8       30.10F WCI   8
JACKSON        CLEAR     19  14  79 CALM      30.10F
SLAYTON        CLEAR     21  16  79 W7        30.09F WCI  13
$$
MNZ065>067-074>077-082>085-091>093-191100-
   South Central Minnesota

CITY           SKY/WX    TMP DP  RH WIND       PRES   REMARKS
MANKATO        CLEAR     18  10  71 NW8       30.10F WCI   8
NEW ULM        CLEAR     14   9  79 CALM      30.11F
ST JAMES       CLEAR     16  10  79 W5        30.12F WCI   9
FAIRMONT       CLEAR     18  12  77 W7        30.12F WCI   9
GLENCOE        CLEAR     18  13  80 W5        30.08F WCI  11
FARIBAULT      CLEAR     18  12  79 W9        30.09S WCI   6
OWATONNA       CLEAR     16  10  79 W8        30.08F WCI   5
WASECA         CLEAR     18  12  79 W9        30.10F WCI   6
ALBERT LEA     CLEAR     18  10  73 W10G17    30.08F WCI   6
$$
MNZ078>079-086>088-094>096-191100-
   Southeast Minnesota

CITY           SKY/WX    TMP DP  RH WIND       PRES   REMARKS
ROCHESTER      CLEAR     17  12  80 NW12      30.05R WCI   4
RED WING       CLEAR     19   9  63 NW5       30.07R WCI  13
STANTON        CLEAR     19  13  77 W7        30.07F WCI  10
DODGE CENTER   CLEAR     18  10  73 W12       30.05F WCI   5
WINONA           N/A     21  12  68 NW10      30.07S WCI  10
AUSTIN         CLEAR     18  10  73 NW13      30.07S WCI   4
PRESTON        CLEAR     17  11  76 NW12      30.05R WCI   5
$$
ABBREVIATIONS USED IN REMARKS
   TC - TEMPERATURES IN CELSIUS
  WCI - WIND CHILL INDEX
   HX - HEAT INDEX
  VSB - VISIBILITY
$$



USA.gov is the U.S. government's official web portal to all federal, state and local government web resources and services.